Temperature
24 22 23 23 24 24 24 24 23 24 24 23 22 22 21 22 21 21 21 21 21 21 21 21 21 21 21 21 20 20 20 20 20 20 19 19 19 19 18 18 18 18 18 18
23 23 24 24 24 24 24 23 23 23 24 23 22 22 22 21 21 21 21 21 21 21 21 21 21 21 21 21 20 20 20 20 20 20 19 19 19 19 18 18 18 18 18 18
24 24 25 25 24 24 24 23 24 23 23 22 22 22 21 21 21 22 22 21 21 21 21 21 21 21 21 21 20 20 20 20 20 20 19 19 19 19 18 18 18 18 18 18
24 24 25 25 25 25 24 25 24 24 22 21 22 21 21 21 20 21 21 21 21 21 22 22 22 21 21 21 21 20 20 20 20 19 19 19 19 19 19 18 18 18 18 18
24 25 25 25 25 25 24 24 24 23 22 21 21 21 21 20 20 20 20 21 21 21 22 22 22 22 21 21 21 20 20 20 20 19 19 19 19 19 18 18 18 18 18 18
24 25 25 25 25 25 24 23 22 20 20 21 21 21 21 20 21 21 21 21 22 22 22 22 22 22 21 21 21 20 20 20 20 19 19 19 19 19 18 18 18 18 18 18
24 25 25 25 25 25 23 22 21 22 20 21 20 20 20 21 21 21 21 21 22 22 22 22 22 22 21 21 21 20 20 20 19 19 19 19 18 18 18 18 18 18 18 17
23 23 25 25 25 24 23 22 22 22 21 20 20 20 21 22 22 22 22 22 22 22 22 22 22 22 22 21 21 20 20 20 19 19 19 18 18 18 18 18 17 17 17 17
22 23 24 25 25 24 23 21 21 19 20 20 20 21 21 21 21 21 21 21 21 21 22 22 22 22 21 21 21 20 20 20 19 19 19 18 18 18 18 17 17 17 17 17
22 23 24 24 24 23 23 20 18 19 20 21 22 21 21 21 21 20 20 20 21 21 21 21 21 21 21 21 21 20 20 20 19 19 18 18 18 17 17 17 17 17 17 16
22 23 23 24 24 24 22 21 18 17 19 20 21 21 22 21 21 20 20 21 21 21 21 22 22 21 21 21 21 20 20 19 19 19 18 18 18 17 17 17 16 16 16 16
20 20 21 22 23 23 23 21 19 21 20 18 19 21 22 21 20 20 20 21 21 22 22 22 21 21 21 21 20 20 20 19 19 19 18 18 17 17 17 16 16 16 16 16
20 20 21 22 22 22 22 21 19 18 17 17 19 22 21 20 20 20 20 21 21 21 21 21 21 21 21 21 20 20 19 19 19 18 18 17 17 17 17 16 16 16 16 16
20 19 20 22 22 22 23 22 20 19 19 18 19 21 21 20 19 19 20 20 21 21 21 21 21 20 20 20 20 20 19 19 18 18 17 17 17 17 16 16 16 16 16 16
20 20 21 21 21 22 22 22 21 20 20 20 21 20 20 20 19 19 19 19 20 20 20 20 20 20 20 20 19 19 19 18 18 18 17 17 17 16 16 16 16 16 15 15
17 19 20 21 22 22 22 22 21 21 21 20 21 20 20 19 19 19 19 19 19 19 20 20 20 20 19 19 19 19 19 18 18 17 17 17 16 16 16 16 16 15 15 15
16 18 19 19 20 22 21 21 21 21 21 20 21 20 19 18 18 18 19 19 19 19 20 20 20 20 19 19 19 19 18 18 18 17 17 17 16 16 16 16 15 15 15 15
16 16 15 17 20 21 20 20 21 21 20 20 19 19 18 18 19 19 20 20 20 20 20 20 20 19 19 19 19 18 18 18 17 17 17 16 16 16 16 16 15 15 15 15
15 16 15 16 18 20 20 20 20 20 20 19 18 18 18 18 18 18 19 20 20 20 20 20 19 19 19 18 18 18 17 17 17 17 17 16 16 16 15 15 15 15 14 14
14 14 15 16 19 19 20 20 20 20 19 18 17 17 17 17 17 18 19 19 20 20 20 19 19 19 18 18 18 17 17 17 17 17 16 16 16 15 15 15 15 14 14 14
16 15 15 16 17 18 18 19 20 20 19 18 18 17 17 16 17 18 18 19 19 19 19 19 19 18 18 18 17 17 17 17 16 16 16 16 15 15 15 14 14 14 13 13
16 15 15 15 17 18 17 18 18 17 17 18 17 17 17 17 17 18 18 19 19 19 19 18 18 18 17 17 17 16 16 16 16 16 15 15 15 14 14 14 13 13 13 13
14 14 14 15 16 16 16 16 17 17 17 17 17 17 17 17 17 17 17 18 18 18 18 18 17 17 17 16 16 16 16 15 15 15 14 14 14 14 13 13 13 13 12 12
14 13 13 14 15 15 16 17 17 18 18 18 18 17 17 17 17 16 17 17 17 17 17 16 16 16 16 16 15 15 15 14 14 14 14 14 13 13 13 13 13 12 12 12
14 13 13 14 14 15 16 17 17 17 18 18 17 17 17 17 16 16 16 16 16 16 16 16 16 16 16 16 15 15 14 14 14 14 14 13 13 13 12 12 12 12 12 12
12 13 13 14 15 14 15 16 17 17 17 17 17 17 17 17 16 16 16 16 16 16 15 15 15 15 15 15 15 14 14 13 13 13 13 13 12 12 12 12 12 11 11 11
Wind_Speed
2 3 2 6 6 4 3 2 3 4 2 2 2 3 3 3 4 4 5 6 6 5 3 3 3 3 3 3 3 3 3 3 3 2 2 2 2 2 3 3 4 3 3 4
4 3 7 4 2 2 2 2 3 2 1 2 1 2 3 3 5 6 7 7 7 4 3 3 3 3 3 3 3 3 3 3 2 2 2 2 2 2 2 2 3 4 4 4
5 6 2 3 2 2 2 5 5 3 2 3 2 4 2 3 3 3 4 6 6 8 7 5 4 4 4 4 4 4 3 3 3 3 3 3 3 3 3 3 3 3 3 3
5 5 2 2 3 5 4 5 5 3 2 2 2 3 6 3 3 4 4 5 7 7 7 6 6 5 5 4 4 3 3 3 3 4 4 4 3 2 1 1 1 3 4 3
5 3 3 4 5 6 5 2 3 2 3 1 2 1 6 1 4 6 6 7 8 8 8 8 7 6 5 5 4 4 3 3 3 4 4 4 3 2 1 2 3 3 3 3
6 4 5 5 2 4 4 7 7 6 4 1 2 2 6 4 6 5 6 7 8 8 8 7 5 5 4 5 5 4 4 3 3 4 4 4 4 3 3 2 2 3 2 3
5 5 3 3 2 2 5 6 4 4 3 4 2 2 8 7 6 6 7 7 7 7 8 8 7 6 6 6 5 5 5 3 3 3 3 3 4 4 3 2 1 1 1 2
2 6 4 3 5 6 4 8 7 4 4 4 2 4 7 5 3 3 4 5 6 7 7 8 8 7 7 6 5 5 5 4 3 4 3 3 3 2 2 1 1 1 0 0
6 6 4 2 2 8 6 4 6 7 3 1 5 6 7 2 1 1 3 4 6 7 8 8 8 7 6 6 6 6 6 4 3 3 3 3 2 2 2 2 1 1 0 1
8 4 5 3 4 4 5 8 6 6 5 2 5 4 4 5 5 3 3 4 5 6 7 8 8 8 7 6 5 5 6 5 3 3 3 3 2 2 2 2 1 1 1 1
6 4 4 3 2 3 4 5 6 5 5 6 3 6 6 8 7 7 7 5 5 7 7 7 7 7 7 6 6 5 5 4 3 3 3 3 2 2 2 2 1 1 1 1
4 5 2 5 4 1 4 6 7 5 3 4 4 7 5 5 5 5 5 4 4 5 6 6 6 7 7 6 5 5 5 4 4 3 3 3 2 2 2 1 1 1 1 1
6 6 2 6 5 3 3 3 4 6 5 5 5 7 4 1 1 3 4 4 4 4 5 5 6 6 6 6 6 5 5 5 4 4 3 3 2 2 1 1 1 1 1 1
5 5 6 8 7 4 1 2 4 6 4 5 7 7 6 3 1 1 2 4 5 5 5 5 6 5 6 6 5 5 5 5 5 4 3 3 3 2 2 1 1 1 1 1
4 4 4 4 3 3 3 3 5 6 7 7 7 7 8 6 5 4 3 4 5 5 5 5 5 5 5 5 5 5 5 4 4 4 4 3 3 2 2 1 1 1 1 1
3 4 2 1 1 2 2 2 3 3 3 4 3 6 4 2 2 2 4 5 6 6 6 6 5 5 6 6 6 5 4 4 4 4 4 3 2 2 2 2 2 1 1 0
2 4 3 2 2 2 2 4 3 3 3 4 5 5 1 1 2 5 5 6 7 7 6 6 6 6 6 6 6 6 5 4 5 4 4 3 3 2 2 1 1 1 1 1
5 4 4 2 2 4 7 2 2 3 2 1 2 2 2 2 2 2 3 5 5 5 5 5 5 5 4 5 5 5 4 4 4 4 3 2 3 2 2 1 1 1 1 1
4 7 4 4 3 4 5 2 3 3 2 1 1 1 2 2 3 2 1 2 4 4 5 5 5 5 4 4 5 5 4 4 3 3 2 2 2 2 2 2 2 1 1 1
5 5 5 4 4 6 6 3 1 3 3 2 1 2 1 3 1 3 2 0 1 2 3 4 4 5 5 4 5 6 5 4 3 3 2 2 2 2 2 2 2 1 1 1
3 4 4 4 4 6 5 5 1 4 6 3 2 3 3 2 4 2 1 1 2 3 3 4 5 5 4 5 6 6 4 4 3 2 2 2 2 2 2 1 1 1 1 1
4 3 3 4 3 6 4 2 3 4 3 1 2 2 2 1 1 1 1 2 3 3 3 4 4 3 3 4 6 5 3 2 2 3 3 2 1 1 2 2 1 1 1 1
3 5 5 6 6 4 2 2 3 1 1 1 2 1 2 2 1 1 1 1 2 2 2 3 5 4 3 3 5 5 2 2 3 3 2 2 2 2 2 2 1 1 1 0
2 2 2 2 3 3 3 2 2 1 1 1 2 3 3 2 2 1 1 1 1 2 2 3 4 4 3 2 3 3 2 3 3 3 2 2 2 1 1 1 1 1 1 1
3 2 1 2 4 4 3 1 1 2 2 3 3 2 3 4 3 2 2 1 2 2 2 3 4 3 3 3 3 3 3 3 3 2 2 1 1 1 0 0 1 2 2 3
4 5 4 5 5 4 5 3 1 1 1 2 3 2 3 4 3 2 2 1 2 2 2 2 3 3 2 3 3 2 3 3 4 3 2 1 1 1 1 0 1 2 1 1
Wind_Direction
85 83 218 228 209 206 192 198 250 254 202 145 199 244 245 202 184 191 188 184 185 194 189 161 156 143 122 110 113 119 115 103 104 101 97 87 66 47 45 44 50 64 74 86
42 268 240 223 189 163 163 198 260 300 93 130 180 279 251 207 204 201 191 192 189 179 171 175 172 157 152 148 145 141 139 130 126 119 115 114 107 78 67 46 46 53 70 84
199 242 203 155 166 167 225 200 218 221 24 43 56 332 279 245 226 221 198 192 187 187 189 189 183 179 163 163 164 162 156 142 124 112 98 86 65 52 48 42 33 32 59 70
241 256 201 206 222 179 247 228 196 170 112 321 68 298 285 248 249 229 210 195 194 194 192 190 185 181 178 175 155 146 146 139 128 123 122 123 116 105 55 51 40 34 46 57
249 228 208 236 232 182 213 125 120 121 128 48 17 172 287 292 253 245 221 207 200 195 194 193 189 185 171 155 144 143 136 127 126 126 133 127 114 108 80 66 59 42 34 43
248 240 206 216 222 158 131 75 61 50 72 8 260 186 280 243 224 234 218 207 198 193 193 188 177 158 149 141 141 142 139 131 124 125 129 130 128 118 97 71 61 42 27 26
305 299 249 168 99 64 94 91 41 5 9 258 261 206 252 254 232 216 212 209 199 187 182 176 172 168 161 154 154 151 150 148 140 137 139 141 141 137 138 137 118 83 40 23
227 289 265 191 176 176 166 142 157 196 223 275 311 242 259 273 262 216 195 190 181 181 178 179 179 173 167 160 155 157 160 159 156 152 149 140 141 140 139 136 140 149 137 14
186 251 281 244 186 143 140 160 156 131 134 322 290 289 307 336 357 122 155 160 178 183 175 175 172 167 167 165 167 167 157 151 157 157 143 133 138 143 140 128 117 111 66 55
167 231 291 298 82 48 127 140 105 120 146 232 293 286 261 266 250 218 190 194 197 182 171 169 168 168 171 172 164 157 153 153 145 143 151 149 146 154 151 131 115 95 54 50
145 172 309 16 139 178 104 99 106 115 147 157 231 269 232 225 218 208 211 204 193 179 175 173 167 167 165 155 153 151 148 140 139 146 133 112 100 100 110 113 125 135 122 118
148 132 239 274 278 215 151 156 146 150 197 170 182 261 286 232 211 190 199 192 175 169 162 162 160 158 160 160 158 160 160 154 154 147 129 119 108 95 92 119 173 152 129 108
137 118 80 341 343 12 83 125 138 124 120 153 175 260 326 14 134 165 174 172 167 157 146 150 152 160 163 164 164 160 158 158 152 143 136 132 126 123 146 202 164 134 135 112
123 122 166 197 217 207 205 176 150 130 147 192 218 249 297 302 246 212 175 170 163 161 157 156 161 165 163 159 158 156 159 161 156 143 153 162 173 179 185 170 133 122 137 143
106 151 191 218 223 179 204 210 179 180 185 188 227 229 252 242 222 208 174 156 154 162 166 167 166 164 159 154 156 159 163 165 159 155 174 191 188 178 164 148 145 128 133 170
76 136 135 291 265 180 229 256 198 200 199 216 237 258 263 237 139 149 162 164 175 183 180 174 164 162 168 167 169 171 174 172 161 170 190 193 178 177 181 173 156 149 158 194
92 121 121 228 292 72 249 247 202 202 214 190 217 245 252 145 176 192 192 188 190 190 180 174 174 179 182 181 175 176 182 169 168 179 189 190 186 188 194 174 152 190 220 215
133 113 126 144 114 218 239 255 189 175 217 205 230 261 237 219 217 202 183 188 196 183 176 177 178 179 180 173 167 165 161 162 169 174 183 193 188 191 186 173 202 228 218 213
142 135 122 128 172 260 291 267 168 176 244 250 197 357 40 68 50 3 317 194 191 183 178 176 175 168 157 165 162 150 147 149 155 166 179 194 188 186 184 200 223 225 208 225
63 92 115 128 162 221 242 286 263 134 257 275 165 166 134 96 106 266 299 94 131 125 137 145 142 139 148 154 149 146 151 156 179 189 186 174 166 174 188 205 208 203 183 223
50 57 114 152 201 253 270 303 89 159 243 258 198 190 172 190 218 235 175 124 127 116 123 133 138 146 153 149 142 148 156 180 193 158 131 116 123 149 160 164 171 169 154 105
164 147 167 148 187 254 326 39 152 228 287 225 189 184 165 165 78 69 101 123 117 101 104 119 126 124 126 138 141 138 156 182 144 124 115 108 95 98 108 119 110 108 112 94
184 188 188 187 208 251 295 248 268 213 180 211 174 170 141 126 102 56 59 91 106 114 110 118 128 121 114 129 138 142 156 119 112 113 119 110 86 84 90 114 128 130 126 177
275 122 138 249 270 283 289 297 329 31 166 165 150 148 138 138 136 96 90 87 83 91 101 112 116 117 119 118 117 130 128 120 105 110 117 110 106 82 72 83 151 171 198 221
227 160 140 267 284 319 311 302 346 33 65 90 91 103 126 120 111 104 94 97 96 88 100 122 125 132 147 138 123 119 126 121 120 116 112 119 126 138 117 39 237 224 221 207
206 181 179 226 230 212 252 272 309 90 88 110 106 85 95 115 127 113 107 114 109 106 102 115 126 132 154 140 134 138 143 141 139 139 139 134 154 179 186 224 337 345 312 323
Height
1489 1494 1499 1496 1494 1494 1497 1502 1504 1499 1493 1497 1500 1500 1496 1495 1496 1497 1498 1499 1500 1501 1503 1504 1505 1506 1507 1508 1509 1509 1510 1510 1510 1511 1511 1512 1512 1513 1513 1513 1514 1514 1514 1513
1494 1496 1489 1487 1489 1492 1496 1502 1503 1497 1493 1496 1501 1500 1496 1495 1494 1495 1496 1497 1498 1500 1502 1504 1505 1506 1507 1508 1508 1509 1510 1510 1511 1511 1512 1513 1513 1514 1514 1515 1515 1515 1515 1515
1494 1490 1485 1487 1491 1495 1497 1500 1500 1500 1497 1498 1502 1505 1499 1495 1494 1494 1495 1496 1497 1498 1500 1502 1504 1505 1506 1507 1508 1509 1510 1511 1511 1512 1513 1513 1514 1515 1515 1515 1515 1516 1516 1516
1489 1484 1485 1488 1490 1491 1499 1490 1492 1497 1505 1512 1507 1521 1503 1496 1494 1493 1493 1494 1495 1497 1498 1500 1502 1504 1505 1506 1508 1509 1510 1511 1512 1513 1513 1514 1514 1515 1515 1516 1516 1517 1517 1517
1488 1483 1485 1488 1486 1486 1490 1487 1491 1497 1505 1514 1512 1519 1509 1498 1497 1492 1490 1491 1492 1494 1496 1498 1500 1502 1504 1506 1507 1509 1510 1511 1512 1513 1514 1514 1515 1515 1516 1516 1517 1517 1517 1517
1483 1479 1480 1480 1479 1481 1484 1491 1498 1506 1513 1525 1516 1520 1514 1500 1492 1488 1487 1488 1489 1492 1494 1497 1499 1502 1504 1506 1507 1508 1510 1511 1512 1513 1514 1514 1515 1515 1516 1516 1516 1517 1517 1517
1487 1480 1476 1476 1482 1483 1487 1504 1523 1525 1533 1528 1515 1516 1510 1488 1484 1483 1484 1485 1487 1489 1492 1495 1497 1500 1502 1504 1506 1508 1509 1510 1511 1512 1513 1514 1515 1515 1515 1516 1516 1516 1516 1516
1497 1496 1479 1475 1479 1486 1490 1499 1521 1531 1535 1528 1516 1517 1498 1483 1481 1480 1482 1484 1486 1488 1490 1493 1495 1498 1501 1503 1505 1507 1508 1509 1511 1512 1513 1514 1514 1515 1515 1515 1516 1516 1516 1516
1497 1494 1476 1473 1473 1478 1491 1497 1498 1517 1523 1528 1521 1508 1491 1481 1481 1481 1481 1483 1484 1486 1488 1491 1494 1497 1500 1502 1504 1506 1508 1509 1510 1511 1512 1513 1514 1514 1515 1515 1515 1516 1516 1516
1483 1491 1479 1474 1473 1478 1482 1492 1506 1518 1530 1532 1521 1513 1504 1488 1484 1481 1481 1482 1483 1485 1487 1490 1493 1496 1499 1501 1504 1506 1507 1509 1510 1511 1512 1513 1513 1514 1514 1515 1515 1515 1515 1515
1479 1490 1486 1480 1482 1485 1488 1494 1504 1515 1517 1529 1530 1515 1485 1482 1479 1479 1479 1480 1482 1484 1486 1489 1492 1495 1498 1501 1503 1505 1507 1508 1509 1511 1511 1512 1512 1513 1514 1514 1514 1514 1514 1514
1478 1489 1496 1487 1478 1476 1479 1487 1498 1509 1515 1521 1523 1511 1476 1475 1474 1476 1478 1479 1481 1483 1485 1488 1491 1494 1497 1499 1502 1504 1506 1507 1508 1510 1511 1511 1511 1512 1512 1513 1513 1513 1513 1513
1477 1489 1502 1499 1493 1483 1483 1486 1491 1499 1511 1521 1521 1504 1476 1474 1474 1475 1477 1478 1480 1483 1485 1488 1490 1493 1495 1498 1500 1502 1504 1506 1507 1509 1510 1510 1511 1511 1511 1511 1512 1512 1512 1512
1471 1486 1495 1501 1496 1487 1486 1485 1489 1496 1509 1513 1508 1495 1482 1477 1476 1476 1477 1478 1480 1482 1485 1487 1489 1491 1493 1496 1499 1501 1503 1505 1506 1507 1508 1509 1509 1509 1510 1510 1510 1510 1510 1510
1471 1484 1484 1484 1481 1481 1482 1482 1485 1489 1493 1498 1493 1490 1481 1476 1476 1475 1476 1477 1479 1481 1483 1486 1488 1490 1492 1495 1497 1500 1502 1504 1505 1506 1507 1507 1508 1508 1508 1509 1509 1509 1509 1508
1475 1482 1483 1483 1480 1480 1482 1480 1481 1483 1484 1487 1485 1484 1474 1474 1474 1475 1476 1476 1478 1479 1481 1484 1486 1489 1491 1494 1496 1498 1500 1502 1503 1505 1505 1506 1506 1507 1507 1507 1507 1507 1506 1506
1479 1483 1490 1494 1485 1482 1490 1482 1481 1481 1479 1481 1484 1479 1474 1474 1473 1474 1474 1475 1476 1477 1480 1482 1485 1487 1490 1492 1494 1497 1499 1500 1502 1503 1504 1504 1504 1505 1505 1505 1505 1505 1504 1504
1479 1486 1495 1497 1491 1499 1487 1474 1474 1477 1477 1476 1476 1475 1474 1473 1473 1473 1474 1474 1475 1477 1479 1481 1484 1486 1489 1491 1493 1495 1497 1498 1499 1500 1501 1502 1502 1502 1502 1502 1502 1502 1502 1501
1474 1483 1495 1501 1500 1493 1481 1474 1474 1477 1478 1474 1474 1474 1474 1473 1473 1474 1474 1474 1475 1476 1479 1481 1483 1485 1487 1489 1491 1493 1494 1496 1497 1498 1499 1500 1500 1500 1500 1500 1499 1499 1499 1499
1477 1480 1492 1499 1497 1499 1482 1471 1469 1474 1480 1473 1473 1473 1474 1474 1478 1475 1473 1474 1475 1476 1478 1480 1482 1484 1485 1487 1489 1491 1492 1494 1495 1496 1496 1497 1497 1498 1497 1497 1497 1497 1497 1496
1484 1488 1492 1496 1496 1489 1475 1470 1470 1484 1481 1471 1471 1471 1472 1473 1474 1473 1473 1473 1474 1475 1477 1479 1480 1481 1483 1485 1487 1489 1491 1492 1493 1493 1494 1494 1495 1495 1495 1494 1494 1494 1494 1493
1486 1490 1493 1496 1496 1491 1473 1471 1475 1475 1470 1470 1470 1470 1471 1471 1472 1472 1472 1472 1473 1474 1476 1477 1478 1480 1481 1483 1485 1486 1488 1490 1491 1491 1492 1492 1492 1492 1492 1492 1492 1492 1492 1491
1482 1483 1484 1486 1485 1477 1473 1473 1472 1471 1470 1469 1469 1470 1471 1471 1471 1472 1472 1472 1473 1474 1475 1476 1477 1479 1481 1482 1483 1485 1486 1488 1489 1490 1490 1490 1490 1490 1490 1489 1489 1489 1489 1488
1479 1478 1480 1480 1476 1473 1472 1471 1470 1470 1469 1469 1469 1470 1470 1470 1471 1471 1472 1472 1473 1474 1475 1476 1477 1478 1480 1481 1483 1484 1485 1486 1487 1487 1488 1489 1488 1488 1488 1487 1487 1487 1486 1485
1477 1478 1479 1479 1475 1472 1470 1470 1470 1469 1469 1469 1469 1470 1470 1470 1471 1472 1472 1472 1473 1474 1475 1476 1477 1478 1479 1480 1481 1482 1483 1484 1485 1486 1486 1487 1487 1486 1486 1486 1486 1485 1484 1483
1474 1475 1477 1477 1472 1472 1470 1470 1470 1469 1469 1469 1469 1469 1470 1471 1471 1472 1472 1473 1473 1474 1475 1476 1476 1477 1478 1478 1479 1480 1481 1482 1482 1483 1484 1484 1484 1485 1484 1484 1483 1482 1482 1481